Weather History for Mandan, ND

Change the Weather History Date:

Monday, February 25, 2013

  Actual Average (KBIS) Record (KBIS)
Temperature  
Mean Temperature 28 °F 22 °F  
Max Temperature 42 °F 31 °F 68 °F (1958)
Min Temperature 14 °F 12 °F -28 °F (1962)
Degree Days  
Heating Degree Days 37 43  
Month to date heating degree days 1186  
Since 1 July heating degree days 6304  
Cooling Degree Days 0 0  
Month to date cooling degree days 0  
Year to date cooling degree days 0  
Moisture  
Dew Point 22 °F    
Average Humidity 77    
Maximum Humidity 100    
Minimum Humidity 49    
Precipitation  
Precipitation 0.00 in 0.02 in 1.02 in (2000)
Month to date precipitation 0.43  
Year to date precipitation 0.86  
Snow  
Snow 0.00 in 0.30 in 4.20 in (1987)
Month to date snowfall 7.1  
Since 1 July snowfall 36.5  
Snow Depth -    
Sea Level Pressure  
Sea Level Pressure 29.94 in    
Wind  
Wind Speed 10 mph (SSW)    
Max Wind Speed 17 mph    
Max Gust Speed 23 mph    
Visibility 10 miles    
Events      
T = Trace of Precipitation, MM = Missing Value Source: NWS Daily Summary

Daily Weather History Graph

Daily Weather History Graph

Search for Another Location

Airport:

Trip Planner

Search our weather history database for the weather conditions in past years. The results will help you decide how hot, cold, wet, or windy it might be!

Date:

Astronomy

Feb. 25, 2013 Rise Set
Actual Time 7:29 AM CST 6:23 PM CST
Civil Twilight 6:59 AM CST 6:54 PM CST
Nautical Twilight 6:24 AM CST 7:29 PM CST
Astronomical Twilight 5:49 AM CST 8:04 PM CST
Moon 6:43 PM CST (2/25) 6:58 AM CST (2/25)
Length of Visible Light 11h 55m
Length of Day
10h 53m
Full, 100% of the Moon is Illuminated
Feb 25
Full
Feb 25
Full
Mar 4
Last Quarter
Mar 11
New
Mar 19
First Quarter

Hourly Weather History & Observations

Time (CST) Temp. Windchill Dew Point Humidity Pressure Visibility Wind Dir Wind Speed Gust Speed Precip Events Conditions
12:15 AM 19.4 °F 7.2 °F 17.6 °F 93% 30.04 in 10.0 mi WNW 11.5 mph - N/A   Clear
12:35 AM 19.4 °F 7.9 °F 17.6 °F 93% 30.04 in 10.0 mi WNW 10.4 mph - N/A   Clear
12:55 AM 19.4 °F 7.9 °F 17.6 °F 93% 30.04 in 10.0 mi WNW 10.4 mph - N/A   Clear
1:15 AM 17.6 °F 6.4 °F 15.8 °F 93% 30.04 in 10.0 mi West 9.2 mph - N/A   Clear
1:35 AM 15.8 °F 5.1 °F 14.0 °F 93% 30.04 in 10.0 mi West 8.1 mph - N/A   Clear
1:55 AM 14.0 °F 5.1 °F 14.0 °F 100% 30.04 in 10.0 mi West 5.8 mph - N/A   Clear
2:15 AM 15.8 °F 5.1 °F 15.8 °F 100% 30.04 in 10.0 mi WSW 8.1 mph - N/A   Clear
2:35 AM 15.8 °F 6.1 °F 15.8 °F 100% 30.04 in 10.0 mi WSW 6.9 mph - N/A   Clear
2:55 AM 14.0 °F 3.9 °F 14.0 °F 100% 30.04 in 10.0 mi WSW 6.9 mph - N/A   Clear
3:15 AM 17.6 °F 7.3 °F 17.6 °F 100% 30.03 in 10.0 mi WSW 8.1 mph - N/A   Clear
3:35 AM 19.4 °F 9.5 °F 17.6 °F 93% 30.02 in 10.0 mi WSW 8.1 mph - N/A   Clear
3:55 AM 19.4 °F 9.5 °F 17.6 °F 93% 30.02 in 10.0 mi WSW 8.1 mph - N/A   Clear
4:15 AM 17.6 °F 6.4 °F 17.6 °F 100% 30.02 in 10.0 mi WSW 9.2 mph - N/A   Clear
4:35 AM 19.4 °F 8.6 °F 17.6 °F 93% 30.01 in 10.0 mi WSW 9.2 mph - N/A   Clear
4:55 AM 17.6 °F 6.4 °F 17.6 °F 100% 30.01 in 10.0 mi WSW 9.2 mph - N/A   Clear
5:15 AM 17.6 °F 6.4 °F 15.8 °F 93% 30.01 in 10.0 mi WSW 9.2 mph - N/A   Clear
5:35 AM 17.6 °F 5.7 °F 17.6 °F 100% 30.01 in 10.0 mi WSW 10.4 mph - N/A   Clear
6:15 AM 17.6 °F 7.3 °F 17.6 °F 100% 30.01 in 10.0 mi SSW 8.1 mph - N/A   Clear
6:35 AM 17.6 °F 8.2 °F 15.8 °F 93% 30.01 in 10.0 mi SSW 6.9 mph - N/A   Clear
6:55 AM 19.4 °F 9.5 °F 17.6 °F 93% 30.01 in 10.0 mi SW 8.1 mph - N/A   Clear
7:15 AM 19.4 °F 7.9 °F 15.8 °F 86% 30.00 in 10.0 mi SW 10.4 mph - N/A   Clear
7:35 AM 19.4 °F 9.5 °F 15.8 °F 86% 30.00 in 10.0 mi SSW 8.1 mph - N/A   Clear
7:55 AM 19.4 °F 7.2 °F 15.8 °F 86% 30.00 in 10.0 mi SSW 11.5 mph - N/A   Clear
8:15 AM 19.4 °F 7.2 °F 15.8 °F 86% 30.00 in 10.0 mi SSW 11.5 mph - N/A   Clear
8:35 AM 23.0 °F 11.7 °F 17.6 °F 80% 29.99 in 10.0 mi South 11.5 mph - N/A   Clear
8:55 AM 23.0 °F 11.7 °F 17.6 °F 80% 29.99 in 10.0 mi South 11.5 mph - N/A   Clear
9:15 AM 24.8 °F 14.0 °F 17.6 °F 74% 30.00 in 10.0 mi South 11.5 mph - N/A   Clear
9:35 AM 24.8 °F 14.6 °F 19.4 °F 80% 29.99 in 10.0 mi South 10.4 mph - N/A   Clear
9:55 AM 28.4 °F 19.1 °F 21.2 °F 74% 29.99 in 10.0 mi SSW 10.4 mph - N/A   Clear
10:15 AM 30.2 °F 21.3 °F 23.0 °F 75% 29.98 in 10.0 mi South 10.4 mph - N/A   Clear
10:35 AM 32.0 °F 24.2 °F 23.0 °F 69% 29.98 in 10.0 mi SW 9.2 mph - N/A   Clear
10:55 AM 32.0 °F 24.2 °F 24.8 °F 75% 29.97 in 10.0 mi SSW 9.2 mph - N/A   Clear
11:15 AM 35.6 °F 28.6 °F 24.8 °F 65% 29.97 in 10.0 mi South 9.2 mph - N/A   Clear
11:35 AM 33.8 °F 26.4 °F 26.6 °F 75% 29.96 in 10.0 mi South 9.2 mph - N/A   Clear
11:55 AM 33.8 °F 24.8 °F 26.6 °F 75% 29.95 in 10.0 mi South 12.7 mph - N/A   Clear
12:15 PM 35.6 °F 25.9 °F 28.4 °F 75% 29.94 in 10.0 mi South 16.1 mph - N/A   Clear
12:35 PM 35.6 °F 27.1 °F 28.4 °F 75% 29.94 in 10.0 mi SSW 12.7 mph 20.7 mph N/A   Clear
12:55 PM 37.4 °F 28.9 °F 28.4 °F 70% 29.92 in 10.0 mi SSW 13.8 mph - N/A   Clear
1:15 PM 39.2 °F 31.6 °F 28.4 °F 65% 29.92 in 10.0 mi SSW 12.7 mph - N/A   Clear
1:35 PM 41.0 °F 32.5 °F 23.0 °F 49% 29.90 in 10.0 mi SSW 17.3 mph 23.0 mph N/A   Clear
1:55 PM 41.0 °F 33.5 °F 26.6 °F 57% 29.90 in 10.0 mi SSW 13.8 mph - N/A   Clear
2:15 PM 41.0 °F 33.1 °F 26.6 °F 57% 29.89 in 10.0 mi SSW 15.0 mph 21.9 mph N/A   Clear
2:35 PM 41.0 °F 33.1 °F 24.8 °F 53% 29.89 in 10.0 mi SSW 15.0 mph - N/A   Clear
2:55 PM 41.0 °F 33.1 °F 24.8 °F 53% 29.89 in 10.0 mi SW 15.0 mph 19.6 mph N/A   Clear
3:15 PM 41.0 °F 33.1 °F 24.8 °F 53% 29.88 in 10.0 mi SSW 15.0 mph - N/A   Clear
3:35 PM 42.8 °F 35.8 °F 24.8 °F 49% 29.88 in 10.0 mi SSW 13.8 mph 19.6 mph N/A   Clear
3:55 PM 42.8 °F 36.6 °F 24.8 °F 49% 29.88 in 10.0 mi SSW 11.5 mph - N/A   Clear
4:15 PM 42.8 °F 37.0 °F 24.8 °F 49% 29.88 in 10.0 mi SSW 10.4 mph - N/A   Clear
4:35 PM 42.8 °F 37.5 °F 24.8 °F 49% 29.87 in 10.0 mi SSW 9.2 mph - N/A   Clear
4:55 PM 41.0 °F 34.7 °F 24.8 °F 53% 29.87 in 10.0 mi SSW 10.4 mph - N/A   Clear
5:15 PM 41.0 °F 35.2 °F 26.6 °F 57% 29.87 in 10.0 mi SSW 9.2 mph - N/A   Clear
5:35 PM 41.0 °F 35.8 °F 24.8 °F 53% 29.87 in 10.0 mi SSW 8.1 mph - N/A   Clear
5:55 PM 39.2 °F 33.6 °F 28.4 °F 65% 29.86 in 10.0 mi South 8.1 mph - N/A   Clear
6:15 PM 37.4 °F 30.8 °F 26.6 °F 65% 29.86 in 10.0 mi South 9.2 mph - N/A   Clear
6:35 PM 35.6 °F 28.0 °F 26.6 °F 70% 29.86 in 10.0 mi South 10.4 mph - N/A   Clear
6:55 PM 35.6 °F 28.0 °F 26.6 °F 70% 29.86 in 10.0 mi SSW 10.4 mph - N/A   Clear
7:15 PM 35.6 °F 27.5 °F 24.8 °F 65% 29.86 in 10.0 mi South 11.5 mph - N/A   Clear
7:35 PM 33.8 °F 25.8 °F 24.8 °F 70% 29.87 in 10.0 mi South 10.4 mph - N/A   Clear
8:15 PM 32.0 °F 22.5 °F 24.8 °F 75% 29.87 in 10.0 mi South 12.7 mph - N/A   Clear
8:35 PM 32.0 °F 21.6 °F 24.8 °F 75% 29.87 in 10.0 mi South 15.0 mph 20.7 mph N/A   Clear
8:55 PM 32.0 °F 22.1 °F 24.8 °F 75% 29.87 in 10.0 mi South 13.8 mph - N/A   Clear
9:15 PM 32.0 °F 22.1 °F 24.8 °F 75% 29.87 in 10.0 mi South 13.8 mph - N/A   Clear
9:35 PM 32.0 °F 23.0 °F 24.8 °F 75% 29.87 in 10.0 mi South 11.5 mph - N/A   Clear
9:55 PM 32.0 °F 23.0 °F 26.6 °F 80% 29.87 in 10.0 mi South 11.5 mph - N/A   Clear
10:15 PM 32.0 °F 22.5 °F 26.6 °F 80% 29.87 in 10.0 mi South 12.7 mph - N/A   Clear
10:35 PM 30.2 °F 21.9 °F 24.8 °F 80% 29.87 in 10.0 mi South 9.2 mph - N/A   Clear
10:55 PM 28.4 °F 20.4 °F 24.8 °F 86% 29.87 in 10.0 mi SSE 8.1 mph - N/A   Clear
11:15 PM 30.2 °F 21.3 °F 24.8 °F 80% 29.87 in 10.0 mi South 10.4 mph - N/A   Clear
11:35 PM 28.4 °F 18.0 °F 24.8 °F 86% 29.87 in 10.0 mi South 12.7 mph - N/A   Clear
11:55 PM 28.4 °F 18.0 °F 24.8 °F 86% 29.87 in 10.0 mi South 12.7 mph - N/A   Clear